Über Miyan Wuliaoyuan
Group: 3 satellites
Beschreibung wird geladen...
Live-Position
3D-Globus wird geladen...
Nächste Überflüge
Höhenverlauf
Altitude vs Time
uPlot chart will show altitude changes over time
Zweizeiliger Elementsatz
1 63991U 25100K 26063.19197534 .00029606 00000-0 13465-2 0 9996
2 63991 97.3721 138.2768 0010019 334.6969 25.3775 15.20636268 44663
Epoch: 4. März 2026 •
Age: 18 hours
Aktueller Status
Höhe 529.5 km
Geschwindigkeit 7.60 km/s
Subsatellitenpunkt -75.74°S,
149.68°W
Startdatum 14. Mai 2025
Alter 0.8 years
Typ other
Technische Details
Klassifizierung Payload
Masse 50.00 kg
Trockenmasse 50.00 kg
Gesamtmasse 50.00 kg
Länge 0.30 m
Durchmesser 0.30 m
Spannweite 0.30 m
Form Box + 2 pan
Hersteller GUOX
Bus-Typ XSD
Phasenstatus In Orbit
Besitzer/Staat GUOX/ZJLAB/CN
Große Konstellationen
Loading constellations...